GFSNW_500_rhum_021.txt.gz
RH
17 13 16 13 14 7 28 68 82 100 100 100 92 99 100 88 95 100 91 73 63 90 58 32 32 32 31 32 30 28 27 27 34 33 33 29 24 25 27 38 41 36 42 35
21 13 16 11 22 22 39 63 91 83 81 88 86 82 80 88 98 86 92 98 92 93 59 44 32 31 31 30 33 38 40 38 32 26 27 26 31 44 44 43 48 61 44 39
28 16 16 18 47 39 57 58 63 65 61 65 82 89 88 82 78 89 94 88 82 88 58 52 50 45 46 45 46 42 34 28 28 31 32 34 55 54 54 60 52 46 52 30
40 17 14 19 22 62 64 53 47 49 55 53 51 72 66 75 82 79 88 85 93 56 54 53 51 50 49 45 38 29 25 29 35 32 44 60 57 69 63 58 62 50 44 50
43 28 17 13 21 29 37 41 44 39 47 57 65 66 74 76 79 94 94 95 88 93 43 45 48 41 35 31 28 26 29 34 58 73 82 68 75 68 69 79 67 57 50 52
43 44 24 17 13 17 32 37 37 41 39 47 55 55 66 64 72 88 92 90 84 95 57 38 35 33 33 31 25 28 36 66 89 88 81 83 85 85 89 81 69 61 56 56
49 46 42 26 17 12 17 26 30 37 32 34 38 41 42 46 56 51 44 55 57 54 77 58 39 53 50 36 22 33 47 83 99 96 90 90 88 89 91 72 64 67 60 50
58 58 45 41 28 18 12 17 30 33 39 47 30 36 36 34 35 36 36 33 34 40 41 61 61 55 63 35 27 33 53 97 100 98 100 96 91 98 86 67 62 63 61 65
50 65 62 50 44 32 22 11 14 19 31 33 41 44 39 43 37 35 57 55 45 40 33 29 47 52 49 16 23 40 65 98 98 100 99 92 93 99 90 81 64 55 55 62
55 50 68 61 58 48 36 27 19 9 20 31 27 34 38 34 33 39 51 50 46 42 33 27 32 21 18 24 34 54 63 96 96 95 95 98 99 95 93 86 61 54 58 62
61 45 51 62 59 57 46 37 29 21 10 17 35 34 26 29 29 35 42 42 40 41 34 30 26 21 21 24 34 57 67 91 96 86 80 69 61 57 63 56 52 59 56 57
86 61 48 47 57 52 48 42 33 26 19 10 17 38 42 35 37 59 55 48 48 49 48 43 33 32 27 23 30 48 64 82 91 75 62 60 52 47 47 46 44 53 56 53
83 75 52 48 43 49 43 38 33 25 16 11 8 33 61 52 62 59 71 60 60 66 65 78 76 51 38 28 31 40 63 69 85 75 58 58 61 58 51 45 42 44 56 59
86 74 63 57 58 58 44 34 22 13 8 5 12 40 52 64 53 72 73 70 70 90 97 97 100 83 65 59 47 52 60 62 71 71 67 65 50 46 45 50 53 44 54 65
88 73 71 54 62 49 30 19 10 3 1 3 47 97 87 67 63 76 87 84 85 99 100 100 100 95 83 78 69 79 44 62 58 66 59 56 54 49 44 44 56 55 59 78
84 82 60 56 54 30 16 5 1 1 3 10 98 100 100 84 76 83 95 100 95 93 96 99 100 97 78 88 95 71 37 48 48 58 54 45 41 42 43 48 54 63 77 92
88 76 58 57 28 13 4 1 2 19 99 100 100 100 100 80 82 90 100 100 100 94 73 91 98 87 81 86 83 72 61 63 73 69 55 57 65 64 63 56 57 71 93 100
89 68 67 27 13 6 2 2 52 99 100 100 100 98 93 86 96 99 93 99 100 99 94 91 90 93 85 86 81 74 73 77 75 71 74 76 74 71 66 68 86 90 99 98
81 78 42 10 10 9 22 81 100 100 100 100 98 78 91 96 100 100 99 100 100 100 100 99 99 100 93 85 86 87 86 73 69 66 79 83 81 76 73 78 100 96 100 96
89 70 18 11 32 63 94 100 100 100 100 100 100 98 97 98 100 100 100 100 100 100 100 96 95 97 100 98 100 100 94 83 83 83 74 72 68 74 82 78 92 97 100 97
98 52 13 24 34 73 85 77 78 92 98 92 98 100 97 89 100 100 100 100 100 100 100 86 90 96 100 100 100 100 100 97 85 80 82 84 88 88 83 82 75 84 99 100
99 42 15 29 40 59 64 74 89 91 89 90 99 99 94 97 91 98 98 100 100 100 98 90 92 98 100 100 100 100 100 100 100 100 99 91 90 88 87 87 80 80 95 95
100 38 20 40 49 54 51 56 65 83 98 100 100 100 96 90 92 93 90 86 84 74 81 92 95 97 99 100 100 100 100 99 99 100 96 97 95 87 93 92 98 95 98 98
100 45 24 27 42 42 50 58 64 71 78 83 86 92 91 88 83 73 69 71 81 86 83 77 86 98 100 100 99 100 100 98 100 100 100 98 99 98 100 100 100 100 99 100
100 62 19 39 40 48 54 53 58 68 69 79 82 79 79 81 74 66 65 78 84 84 85 91 98 99 100 100 98 98 99 100 100 100 96 98 100 100 99 100 100 98 100 100
100 93 25 27 42 51 50 56 62 70 74 76 79 72 74 77 74 72 68 73 73 69 70 79 91 100 100 100 100 99 98 99 100 100 99 100 99 100 100 100 100 100 100 99
100 99 55 21 25 37 44 49 56 63 69 73 76 74 68 67 78 79 78 89 91 82 76 69 67 78 95 100 100 100 100 99 98 99 100 100 100 100 99 100 100 100 100 100

GFSNW_500_rhum_027.txt.gz
RH
39 31 19 24 26 36 46 37 25 22 30 32 32 29 32 29 34 55 54 72 82 84 97 95 37 31 26 24 30 36 40 41 32 29 26 24 24 23 24 24 20 19 21 45
47 37 25 15 26 24 20 22 35 28 35 41 46 47 42 33 41 62 68 62 74 74 79 54 31 31 28 26 26 30 32 29 28 26 26 26 28 28 26 22 23 40 45 53
57 43 34 18 19 23 24 21 18 26 40 43 51 64 53 56 61 64 46 42 58 79 72 34 30 29 28 29 32 32 30 29 27 28 30 30 27 25 24 29 52 61 57 59
80 50 42 29 16 19 26 25 23 19 21 26 37 34 48 66 62 56 70 83 71 91 59 38 29 29 30 31 31 32 33 35 38 35 27 27 29 29 38 61 63 76 59 54
96 65 51 43 32 16 16 25 26 22 24 22 25 30 32 27 37 54 65 72 83 88 60 48 38 34 31 33 35 40 44 39 32 25 25 29 35 50 65 76 73 45 63 50
97 93 51 51 44 34 18 16 18 29 25 26 24 34 33 34 31 41 57 60 71 72 73 63 52 52 49 47 47 45 41 33 27 24 29 47 74 75 80 78 53 50 38 36
98 98 58 56 55 48 41 28 16 18 24 29 30 28 36 43 45 46 48 49 46 60 73 76 71 69 60 48 45 41 33 28 24 30 47 64 78 84 85 73 59 43 38 42
100 98 74 68 65 62 56 51 41 24 17 21 20 21 21 26 40 41 38 41 40 35 36 58 62 48 48 44 34 33 29 24 30 48 74 81 82 91 92 76 64 49 40 44
99 99 100 70 73 77 66 65 60 52 37 20 17 18 25 34 27 35 39 33 31 29 29 42 46 59 49 40 41 40 24 27 39 70 76 91 93 95 95 80 81 55 48 46
99 99 100 86 86 89 92 93 77 68 62 52 36 21 15 20 28 32 38 46 35 30 30 28 36 40 59 58 47 54 51 23 44 76 87 90 98 96 98 96 88 52 49 49
100 100 99 100 100 99 95 94 89 90 80 80 62 53 35 21 16 26 36 38 39 56 53 43 42 39 36 50 54 51 48 20 47 75 88 90 98 99 97 92 62 48 47 48
99 99 98 100 100 100 100 100 100 88 82 86 92 74 67 46 27 16 28 34 37 36 42 47 44 43 38 37 40 43 31 34 59 80 97 94 94 99 74 62 51 45 47 45
99 100 100 100 100 90 75 91 78 64 66 71 83 88 80 67 51 32 16 31 35 36 33 33 40 42 47 38 34 29 28 34 56 83 98 97 86 72 56 52 48 47 48 48
100 100 100 100 100 94 84 67 66 60 50 41 39 44 63 64 62 48 24 30 42 37 36 29 34 39 47 53 39 32 32 28 38 68 88 87 85 61 59 60 52 46 47 47
99 100 100 94 80 78 69 64 45 20 10 6 6 8 10 18 40 43 32 25 56 56 53 39 40 44 46 58 58 58 36 36 29 50 75 77 87 73 71 59 54 58 52 43
100 96 71 67 84 70 57 22 13 10 12 8 3 2 2 4 9 18 43 67 87 72 71 69 62 58 56 64 93 90 51 44 39 47 55 57 80 84 73 66 61 54 40 43
87 82 77 88 76 44 19 18 32 40 62 19 16 6 3 4 47 100 99 100 98 91 89 80 86 77 67 70 96 97 90 63 48 45 51 47 55 70 70 64 59 49 47 61
94 71 83 84 52 23 25 35 23 54 53 88 99 45 52 93 100 87 100 100 98 98 99 100 97 83 80 80 83 83 80 75 66 52 60 47 47 55 63 62 60 51 63 66
75 74 94 72 29 36 35 47 59 50 74 100 100 100 89 89 84 98 100 93 83 98 97 98 92 84 66 69 65 60 61 62 63 64 61 66 70 62 66 68 64 64 71 75
66 90 98 52 42 37 40 72 74 63 64 92 96 85 100 100 99 93 94 100 100 98 93 89 85 76 82 78 68 60 55 52 61 64 57 66 77 76 70 73 77 77 78 86
96 99 95 52 44 50 38 54 81 83 82 82 98 96 100 100 100 100 97 98 100 90 93 91 87 96 99 97 98 86 69 60 59 66 76 78 77 78 80 88 87 82 79 84
100 98 95 73 40 36 41 49 66 79 90 85 94 100 99 100 100 100 100 99 99 85 84 91 88 100 97 100 100 100 90 76 72 77 92 99 89 90 92 84 79 78 76 81
100 99 100 99 72 38 38 45 45 77 75 85 97 100 100 100 100 100 100 100 99 93 96 90 95 99 100 97 96 96 95 94 82 80 90 96 98 94 96 98 96 92 87 90
99 94 100 100 88 81 63 71 80 75 88 85 93 100 98 98 100 100 95 97 92 72 68 78 87 97 99 100 98 100 100 100 100 94 93 98 100 100 100 100 100 97 99 98
79 93 99 96 100 100 72 78 90 88 84 88 94 96 100 100 100 94 84 78 73 71 82 89 93 91 88 90 100 100 100 100 100 100 100 100 100 100 92 92 86 85 98 100
85 94 98 100 100 99 80 69 82 85 89 84 88 90 95 100 93 93 89 80 80 77 75 71 80 94 100 100 100 100 100 99 100 100 100 100 100 100 99 99 98 100 100 100
94 100 100 100 100 100 81 55 76 86 89 83 78 83 90 90 88 94 100 100 90 87 78 67 60 60 67 70 72 79 83 87 95 100 100 100 100 100 100 100 100 100 100 99

GFSNW_500_rhum_030.txt.gz
RH
100 48 30 14 14 22 20 30 40 26 42 44 30 32 33 31 33 52 81 68 64 66 68 64 88 47 52 34 28 33 41 35 43 44 46 44 40 34 27 24 23 21 22 24
97 81 39 22 13 20 24 22 27 43 34 43 40 28 24 32 43 50 71 67 63 79 87 73 46 42 33 29 34 41 47 48 40 37 31 28 27 26 24 23 25 25 27 28
97 99 50 34 19 14 19 23 23 26 33 39 39 51 58 61 62 47 42 38 64 71 88 75 34 32 31 29 29 32 33 31 27 27 27 28 27 26 28 26 26 30 47 54
100 98 91 44 29 18 18 21 25 26 23 24 30 36 41 36 43 52 63 55 48 72 78 38 31 32 30 31 34 34 31 31 29 28 31 32 31 29 26 30 36 63 56 58
100 100 99 74 43 28 19 17 19 24 28 29 28 23 37 35 28 48 59 65 82 79 58 42 34 30 32 32 33 32 31 34 39 38 32 27 27 29 34 49 69 70 57 51
86 100 99 97 54 46 32 20 17 17 19 24 31 36 41 53 44 43 56 57 67 80 70 53 44 39 36 33 32 31 35 41 38 34 27 27 32 39 56 71 75 71 56 41
54 99 100 100 71 58 51 41 31 22 18 17 20 28 33 37 49 55 54 51 49 59 69 76 65 54 51 49 47 46 46 43 38 30 27 31 59 77 78 88 80 59 38 34
80 92 98 100 89 60 72 59 53 46 32 22 18 18 20 24 27 41 44 52 46 42 41 50 77 71 69 63 52 47 45 42 33 28 30 43 78 87 95 95 78 48 38 36
85 99 98 99 100 83 75 76 66 64 60 49 38 25 19 18 21 27 27 38 38 38 37 42 45 64 58 53 56 48 35 33 29 27 35 60 84 90 96 93 77 65 50 43
82 100 99 99 100 100 93 94 93 91 86 70 67 60 45 32 22 21 29 29 26 29 33 33 42 47 55 56 44 42 42 41 32 29 38 82 94 98 99 98 81 83 68 45
67 100 100 99 99 99 100 99 100 100 100 99 89 81 80 65 45 32 21 24 27 32 35 36 35 35 40 46 56 58 44 46 51 34 36 97 96 96 94 96 89 96 64 46
82 99 100 100 100 98 98 99 99 96 96 100 97 94 85 76 74 57 38 26 22 32 36 38 55 51 48 40 40 48 56 44 47 46 34 84 98 98 100 100 100 99 61 46
100 97 100 99 100 99 100 100 98 89 73 82 100 98 87 79 80 85 67 48 31 21 33 40 38 45 50 47 40 38 42 48 46 39 50 67 88 93 90 98 80 62 50 45
100 98 100 99 100 100 99 96 76 62 46 37 26 22 29 58 70 68 81 92 56 26 26 34 38 34 36 42 47 41 38 39 37 31 49 69 87 95 90 87 71 55 51 49
100 100 100 98 100 94 79 59 45 34 18 17 26 17 12 9 13 72 80 99 88 41 26 27 37 39 33 31 38 53 40 39 33 40 44 64 81 91 98 84 63 61 52 47
100 100 100 99 94 80 57 44 27 22 29 27 28 16 10 2 3 9 98 100 100 53 28 26 36 40 37 32 33 56 46 44 42 45 42 42 60 71 92 89 73 67 58 57
100 100 98 81 77 64 37 26 22 27 26 40 26 4 3 2 3 6 37 100 99 85 61 37 46 46 39 33 38 80 60 66 50 53 51 53 48 51 56 86 84 72 67 60
100 100 94 89 72 45 28 30 27 39 32 42 62 33 15 12 6 15 85 100 94 100 99 77 63 50 46 42 83 86 79 84 69 59 57 55 56 46 43 50 65 72 67 64
100 100 100 92 58 31 33 33 50 62 49 58 53 86 100 100 100 99 100 100 65 94 99 71 63 59 53 72 97 95 86 80 71 65 60 55 54 56 39 33 43 53 64 68
100 100 97 96 42 37 48 56 72 72 65 66 59 78 68 83 93 94 68 71 67 54 73 74 60 55 78 90 85 78 74 68 61 53 48 51 54 55 57 45 47 56 68 74
100 100 100 82 53 44 52 50 75 84 80 81 82 83 84 81 78 100 100 100 95 83 77 80 75 97 100 95 99 100 87 81 70 59 46 44 55 57 60 65 69 73 78 86
100 100 100 99 66 58 60 54 70 85 94 82 85 96 100 100 96 93 98 94 98 89 88 85 83 100 99 100 100 92 99 97 89 77 57 53 69 74 81 81 79 83 91 94
100 100 100 100 85 71 41 54 52 57 86 93 90 90 100 100 97 93 100 98 91 88 83 84 93 99 88 99 100 99 100 100 100 80 78 78 88 97 100 99 94 86 81 82
100 100 100 100 100 99 73 53 75 64 75 92 100 100 100 100 100 99 100 100 100 100 99 99 94 89 91 97 100 96 98 98 100 100 100 100 100 100 100 100 100 93 95 92
100 100 100 100 100 100 100 99 86 82 88 98 100 100 100 100 100 100 100 100 99 99 93 96 98 96 92 91 96 99 100 100 100 100 100 100 100 100 100 100 90 88 86 83
57 99 100 99 100 100 100 100 100 97 100 100 100 100 100 100 97 96 100 100 98 82 77 78 75 87 99 100 100 100 100 100 100 100 100 100 100 100 100 100 98 89 92 94
11 70 99 98 100 100 100 100 100 100 100 100 97 98 100 95 93 95 100 100 90 79 75 75 70 66 63 66 72 80 86 90 96 100 100 100 100 100 100 100 100 100 98 100

GFSNW_500_rhum_033.txt.gz
RH
60 89 100 36 16 14 19 33 51 45 22 18 21 20 25 25 31 33 31 49 49 57 66 88 92 92 80 84 60 48 60 60 53 41 36 33 31 34 38 41 38 27 22 21
36 86 100 98 23 16 14 22 36 51 52 39 22 18 20 26 26 47 56 53 63 66 68 69 76 71 66 57 38 29 31 34 30 34 42 41 43 43 40 33 25 25 22 18
17 41 92 100 52 21 18 17 19 26 36 67 66 65 57 57 54 41 53 46 69 80 87 83 71 48 35 28 26 33 38 45 48 43 37 35 32 27 25 26 31 29 25 20
10 17 57 85 99 36 20 18 18 18 21 26 44 68 62 49 51 60 52 42 40 69 83 86 51 33 31 27 29 33 35 35 32 31 30 30 29 30 31 32 29 30 26 37
3 9 51 88 94 96 30 22 18 19 20 21 19 22 34 39 40 62 66 72 65 77 76 44 32 31 30 30 32 35 34 33 31 30 35 37 35 32 31 30 31 39 53 65
4 6 13 54 90 100 67 30 22 19 18 20 21 25 31 43 39 46 67 71 79 84 62 46 40 31 33 32 32 32 33 35 39 41 37 30 27 26 30 34 47 59 74 66
7 10 38 44 88 90 99 53 39 31 22 19 18 20 21 27 38 50 61 67 62 80 83 67 50 46 37 34 32 32 33 39 44 39 33 30 31 38 52 67 73 78 73 58
8 28 59 80 87 92 100 76 63 55 44 36 29 21 18 20 19 24 37 56 53 51 70 78 79 70 57 52 48 48 46 46 44 39 32 30 32 48 64 75 83 83 70 50
10 23 50 83 95 90 99 96 88 88 69 60 54 49 41 29 19 18 19 23 37 46 44 46 69 79 76 69 61 56 50 47 44 38 33 30 40 58 75 84 99 88 67 53
20 38 59 75 92 100 100 100 99 100 100 96 80 74 71 62 52 40 24 19 18 24 37 36 34 52 69 72 63 58 58 52 40 35 30 29 40 74 89 100 97 97 81 70
99 98 100 82 92 96 100 100 100 100 99 98 100 100 94 90 84 70 57 39 25 18 18 22 28 28 34 46 59 62 53 46 43 40 43 35 40 82 97 100 100 98 90 78
100 100 100 94 90 93 84 93 100 100 100 100 100 99 97 97 93 90 86 69 58 33 22 19 24 27 26 31 40 38 50 52 45 47 50 49 35 68 94 99 99 100 89 82
100 100 100 100 100 92 97 97 96 97 94 100 100 91 93 90 98 80 84 90 83 72 41 22 21 28 36 39 42 43 39 41 50 47 49 50 42 44 98 100 100 95 89 85
100 100 100 100 100 100 100 100 100 99 95 88 55 36 26 22 20 23 37 96 100 100 92 44 22 22 33 40 42 43 42 39 41 46 50 48 43 54 86 100 95 93 90 71
100 100 100 100 100 100 100 100 99 84 41 28 26 19 22 23 19 22 26 27 64 100 100 86 41 22 26 37 37 34 37 45 42 47 48 42 37 43 78 95 95 86 74 58
100 100 100 100 100 100 100 94 46 26 20 24 30 26 41 18 8 5 4 20 27 97 100 100 68 27 26 29 37 43 33 33 46 53 50 51 42 39 57 95 97 95 78 66
100 100 100 100 100 100 74 38 26 22 34 37 30 48 49 12 4 3 3 11 26 100 100 100 84 35 26 24 35 51 39 32 37 59 65 64 53 49 36 40 71 88 90 73
100 100 100 100 100 67 36 30 31 39 53 40 32 52 66 81 10 6 5 20 77 100 100 100 81 42 26 30 48 52 46 40 41 58 66 80 71 56 42 39 36 46 66 81
100 100 100 100 92 39 37 40 51 50 68 53 44 51 94 100 92 56 56 96 100 100 100 100 99 59 39 52 60 59 61 74 76 76 68 66 71 65 52 45 39 33 33 42
100 100 100 100 95 59 53 57 68 63 71 68 61 59 71 100 100 100 96 100 100 100 100 87 64 52 66 72 76 72 72 82 83 74 60 54 53 54 52 46 43 38 33 30
100 100 100 100 100 83 68 62 78 78 87 91 82 77 79 86 100 96 100 96 99 98 100 68 56 83 84 72 73 74 83 79 80 74 62 56 51 43 44 45 46 43 42 51
98 100 100 100 100 98 88 81 65 65 93 100 86 94 76 90 98 95 90 96 100 95 93 72 96 98 90 86 82 84 85 85 84 78 75 73 65 51 42 42 56 61 62 70
94 99 100 100 100 100 100 97 86 64 58 100 99 100 95 95 94 89 88 88 81 88 85 84 98 81 69 85 86 88 99 97 98 87 83 89 80 67 69 80 92 97 95 92
72 91 97 100 100 100 100 98 86 65 59 72 100 100 100 99 97 92 92 97 100 91 95 92 72 69 81 89 96 96 98 100 100 99 96 99 100 100 91 94 100 100 100 100
10 68 100 100 100 100 100 100 100 86 78 74 100 100 100 100 96 85 99 100 95 100 99 87 89 91 91 90 95 99 100 100 100 100 100 100 100 100 100 100 100 100 100 100
20 12 33 96 100 100 100 100 100 100 100 92 91 100 100 100 100 100 100 99 100 98 94 88 92 86 99 100 100 100 100 100 100 100 100 100 100 100 100 100 100 100 99 98
53 43 26 12 42 93 96 100 100 100 100 100 96 96 100 95 100 100 100 100 100 99 84 79 79 78 85 86 87 96 98 98 99 100 100 100 100 100 100 100 100 100 100 99

GFSNW_500_rhum_036.txt.gz
RH
2 4 39 100 98 17 23 35 31 20 27 25 23 22 23 22 24 22 23 28 40 56 62 70 76 89 91 86 87 85 87 89 84 85 89 84 86 72 44 39 45 40 39 33
2 2 10 49 97 60 12 29 34 25 19 21 23 26 29 27 29 23 30 37 45 54 64 72 77 76 83 90 86 76 62 68 63 54 52 42 40 33 32 32 39 46 35 29
2 2 3 17 55 99 29 14 26 34 34 24 37 52 59 54 36 50 50 55 58 68 71 67 80 82 82 85 70 46 34 37 41 48 45 44 44 41 40 39 41 33 27 24
2 2 3 5 40 93 95 20 15 20 30 53 60 54 42 48 58 70 47 40 40 59 71 73 68 52 45 42 34 36 39 46 48 47 48 47 48 45 38 31 28 25 26 22
2 2 4 5 16 89 100 93 21 19 18 24 33 40 34 32 38 58 69 78 61 55 82 82 67 38 30 28 26 30 34 40 40 37 36 32 31 30 29 29 30 30 24 26
3 2 5 6 9 34 97 100 55 23 18 19 16 20 24 29 28 32 60 70 85 89 95 71 50 32 31 31 31 30 32 33 33 33 34 37 37 35 33 31 29 27 30 35
5 5 5 9 43 46 82 100 99 35 23 20 19 16 17 18 27 28 32 42 62 80 80 64 51 37 32 30 30 33 35 38 40 44 43 40 33 30 28 29 29 36 43 71
10 19 10 13 35 57 100 100 100 94 43 34 27 21 18 17 16 20 30 46 53 55 74 79 67 54 46 38 33 33 33 37 47 46 40 36 33 31 36 45 59 61 82 87
12 35 52 28 33 71 100 100 100 100 95 74 56 50 41 32 21 19 18 19 30 48 51 50 67 76 69 58 54 48 46 47 45 45 42 38 35 31 36 56 69 77 94 86
53 85 94 100 67 54 100 100 100 100 100 97 94 79 76 69 60 50 36 22 19 17 29 46 44 42 52 73 74 64 58 53 49 46 43 38 33 31 35 54 72 82 99 91
89 90 98 100 100 95 88 100 100 100 100 96 100 95 96 97 94 86 82 74 50 32 21 16 27 39 36 37 52 72 69 63 60 55 46 40 36 31 39 66 79 93 99 95
90 94 88 100 100 100 93 93 97 100 100 100 100 100 100 99 98 100 100 100 99 89 54 33 19 17 23 32 33 36 45 59 57 54 51 47 45 35 37 69 84 93 99 99
91 100 100 96 100 100 100 100 94 83 100 100 100 100 100 100 100 100 100 100 100 100 100 89 54 27 23 22 24 29 29 32 39 49 50 47 45 48 40 38 88 96 100 100
99 100 100 100 100 99 100 100 100 100 100 100 100 100 100 95 77 60 52 66 86 93 100 100 94 68 33 27 30 32 39 34 37 38 43 47 47 43 48 39 54 88 94 94
100 100 100 100 100 100 100 100 100 100 100 99 92 58 35 26 27 29 27 29 25 23 36 99 93 100 78 29 29 35 45 44 40 42 43 43 46 47 47 44 50 77 93 93
100 100 100 100 100 100 100 100 100 82 38 24 27 22 24 37 30 41 29 18 20 24 27 47 100 100 100 55 24 36 43 38 36 45 53 47 44 45 43 36 44 76 90 91
100 100 100 100 100 100 100 86 49 36 30 38 27 34 32 30 41 53 16 6 5 8 21 45 100 100 100 82 33 40 39 38 38 38 49 65 53 50 40 34 37 57 86 93
100 100 100 100 100 100 99 63 46 42 37 39 54 40 39 39 68 16 4 4 5 21 77 69 100 100 97 92 39 34 36 35 36 34 31 44 67 69 57 44 40 36 35 54
98 100 100 100 98 100 70 54 59 60 54 62 82 48 38 56 93 63 62 55 36 55 92 80 100 98 97 98 48 39 38 40 39 36 33 33 51 68 62 55 49 42 40 39
91 94 100 100 100 99 71 85 81 76 65 82 93 76 55 75 86 100 98 94 100 100 100 96 99 100 100 98 60 47 45 47 45 44 46 54 70 77 68 57 52 51 45 40
75 82 98 100 100 100 92 84 82 99 93 81 95 96 89 86 86 90 100 100 100 100 100 100 100 100 97 87 67 62 64 66 63 58 57 58 62 58 53 49 44 43 44 39
73 73 76 98 100 100 100 95 83 96 92 97 96 94 100 99 94 84 91 98 96 100 100 100 100 91 77 73 69 66 69 72 72 73 70 65 65 62 54 39 35 36 40 46
23 51 68 87 96 100 100 97 92 93 96 76 98 100 100 100 100 100 100 100 100 94 98 100 100 99 84 75 73 77 81 82 84 87 83 70 71 71 61 42 36 43 52 58
21 14 28 99 100 100 100 100 100 100 99 93 76 100 100 100 100 100 92 90 99 100 100 93 77 69 73 72 80 82 89 91 90 97 100 95 90 92 95 99 80 74 80 91
51 42 30 31 95 100 100 100 99 100 100 95 78 87 100 100 100 100 99 100 100 100 100 99 91 85 82 85 91 96 99 99 100 100 100 100 100 100 100 100 100 100 100 100
41 52 56 48 27 44 97 100 100 100 100 95 97 82 98 100 98 96 97 97 100 100 100 98 93 94 96 98 100 100 100 100 100 100 100 100 100 100 100 100 100 100 100 100
25 50 52 55 44 32 19 35 95 100 100 100 100 94 98 94 100 100 100 100 100 100 100 100 99 87 83 88 100 100 100 100 100 100 100 100 100 100 100 100 100 100 100 100